"Pseudo-MPEC" for C2T3952

Created 2020 May 27 21:07:03 UT using Find_Orb

Click here for an explanation of pseudo-MPECs

 
 Astrometry: 
     C2T3952  C2020 05 16.20428 11 32 41.69 +39 19 54.0    ~5G5q 21.5 GVNEOCPG96
     C2T3952  C2020 05 16.20948 11 32 41.82 +39 19 51.6    ~5G5q 22.2 GVNEOCPG96
     C2T3952  C2020 05 16.21469 11 32 41.85 +39 19 49.3    ~5G5q 22.5 GVNEOCPG96
     C2T3952  C2020 05 16.21989 11 32 41.96 +39 19 47.4    ~5G5q 21.8 GVNEOCPG96
     C2T3952  C2020 05 16.31478 11 32 43.92 +39 19 05.3    ~5G87 23.2 GVNEOCPV06
     C2T3952  C2020 05 16.31874 11 32 43.96 +39 19 03.2    ~5G87 22.2 GVNEOCPV06
     C2T3952  C2020 05 16.32270 11 32 44.00 +39 19 01.6    ~5G87 22.2 GVNEOCPV06
     C2T3952  C2020 05 16.32666 11 32 44.10 +39 19 00.4    ~5G87 22.5 GVNEOCPV06
     C2T3952  C2020 05 17.20538 11 33 03.89 +39 12 36.0    ~5H5q 23.3 GVNEOCPV06
     C2T3952  C2020 05 17.21726 11 33 04.14 +39 12 30.2    ~5H5q 23.4 GVNEOCPV06
     C2T3952  C2020 05 17.22360 11 33 04.28 +39 12 27.0    ~5H5q 23.3 GVNEOCPV06
     C2T3952  C2020 05 17.22993 11 33 04.32 +39 12 23.9    ~5H5q       VNEOCPV06

Station data:
(G96) Mt. Lemmon Survey  (N32.442754 W110.788720)  US/Arizona.  Observers T.
   A. Pruyne, B. M. Africano, E. J. Christensen, G. A. Farneth, D. C. Fuls,
   A. R. Gibbs, A. D. Grauer, H. Gröller, J. A. Johnson, R. A. Kowalski, S.
   M. Larson, G. J. Leonard, D. Rankin, R. L. Seaman, F. C. Shelly. 1.5-m
   reflector + 10K CCD.
(V06) Catalina Sky Survey-Kuiper  (N32.416847 W110.732550)  US/Arizona.
   Observers T. A. Pruyne, B. M. Africano, E. J. Christensen, G. A. Farneth,
   D. C. Fuls, A. R. Gibbs, A. D. Grauer, H. Gröller, J. A. Johnson, R. A.
   Kowalski, S. M. Larson, G. J. Leonard, D. Rankin, R. L. Seaman, F. C.
   Shelly. 1.55-m reflector + CCD.

Orbital elements:  C2T3952
   Perihelion 2018 Dec 14.447058 +/- 270 TT = 10:43:45 (JD 2458466.947058)
Epoch 2020 May 17.0 TT = JDT 2458986.5   Earth MOID: 0.8868   AutoNEOCP
M 168.56237673 +/- 110              (J2000 ecliptic)
n   0.32443734 +/- 0.148            Peri.  240.36920 +/- 80
a   2.09756530 +/- 0.638            Node   138.82687 +/- 9
e   0.1394535 +/- 0.135             Incl.   35.90377 +/- 3.8
P   3.04                   H 18.3   G  0.15   U 11.5  SR
q 1.80505228 +/- 0.604    Q 2.39007832 +/- 1.64
From 12 observations 2020 May 16-17 (24.6 hr); mean residual 0".36
Residuals in arcseconds: 
200516 G96  .25+  .14-    200516 V06  .44+  .16+    200517 V06  .28+  .56+    
200516 G96  .58+  .25-    200516 V06  .05-  .17-    200517 V06  .26+  .11+    
200516 G96  .26-  .26-    200516 V06  .54-  .01+    200517 V06  .32+  .23-    
200516 G96  .17-  .12+    200516 V06  .33-  .58+    200517 V06  .79-  .48-    

Ephemerides (geocentric):
Date (UTC) HH   RA              Dec         delta   r     elong  mag " sig PA
---- -- -- --  -------------   -----------  ------ ------ -----  --- ---- ---
2020 05 27 21  11 38 35.899   +37 44 48.47  2.1370 2.3879  91.4 23.0  308  37
2020 05 27 22  11 38 37.516   +37 44 26.02  2.1375 2.3879  91.4 23.0  310  37
2020 05 27 23  11 38 39.135   +37 44 03.55  2.1379 2.3879  91.4 23.0  312  37
2020 05 28 00  11 38 40.756   +37 43 41.07  2.1384 2.3880  91.4 23.0  315  37
2020 05 28 01  11 38 42.380   +37 43 18.58  2.1389 2.3880  91.3 23.0  317  37
2020 05 28 02  11 38 44.006   +37 42 56.08  2.1393 2.3880  91.3 23.0  319  37
2020 05 28 03  11 38 45.634   +37 42 33.56  2.1398 2.3880  91.3 23.0  322  37
2020 05 28 04  11 38 47.265   +37 42 11.03  2.1402 2.3880  91.3 23.0  324  37
2020 05 28 05  11 38 48.897   +37 41 48.48  2.1407 2.3880  91.2 23.0  326  37
2020 05 28 06  11 38 50.533   +37 41 25.93  2.1412 2.3880  91.2 23.0  329  37
2020 05 28 07  11 38 52.170   +37 41 03.36  2.1416 2.3880  91.2 23.0  331  37
2020 05 28 08  11 38 53.810   +37 40 40.78  2.1421 2.3880  91.1 23.0  333  37
2020 05 28 09  11 38 55.453   +37 40 18.18  2.1425 2.3880  91.1 23.0  336  37
2020 05 28 10  11 38 57.097   +37 39 55.57  2.1430 2.3880  91.1 23.0  338  37
2020 05 28 11  11 38 58.744   +37 39 32.95  2.1435 2.3880  91.1 23.0  341  37
2020 05 28 12  11 39 00.393   +37 39 10.32  2.1439 2.3880  91.0 23.0  343  37
2020 05 28 13  11 39 02.045   +37 38 47.67  2.1444 2.3880  91.0 23.0  345  37
2020 05 28 14  11 39 03.698   +37 38 25.01  2.1449 2.3881  91.0 23.0  348  37
2020 05 28 15  11 39 05.354   +37 38 02.34  2.1453 2.3881  91.0 23.0  350  37
2020 05 28 16  11 39 07.013   +37 37 39.65  2.1458 2.3881  90.9 23.0  353  37
2020 05 28 17  11 39 08.674   +37 37 16.96  2.1462 2.3881  90.9 23.0  355  37
2020 05 28 18  11 39 10.337   +37 36 54.25  2.1467 2.3881  90.9 23.0  358  37
2020 05 28 19  11 39 12.002   +37 36 31.52  2.1472 2.3881  90.9 23.0  360  37
2020 05 28 20  11 39 13.669   +37 36 08.79  2.1476 2.3881  90.8 23.0  363  37
2020 05 28 21  11 39 15.339   +37 35 46.04  2.1481 2.3881  90.8 23.0  365  37
2020 05 28 22  11 39 17.012   +37 35 23.27  2.1485 2.3881  90.8 23.0  368  37
2020 05 28 23  11 39 18.686   +37 35 00.50  2.1490 2.3881  90.8 23.0  370  37
2020 05 29 00  11 39 20.363   +37 34 37.71  2.1495 2.3881  90.7 23.0  373  37
2020 05 29 01  11 39 22.042   +37 34 14.91  2.1499 2.3881  90.7 23.0  375  37
2020 05 29 02  11 39 23.723   +37 33 52.10  2.1504 2.3881  90.7 23.0  378  37
2020 05 29 03  11 39 25.407   +37 33 29.28  2.1509 2.3881  90.7 23.0  380  37
2020 05 29 04  11 39 27.093   +37 33 06.44  2.1513 2.3882  90.6 23.0  383  37
2020 05 29 05  11 39 28.781   +37 32 43.59  2.1518 2.3882  90.6 23.0  385  37
2020 05 29 06  11 39 30.471   +37 32 20.73  2.1522 2.3882  90.6 23.0  388  37
2020 05 29 07  11 39 32.164   +37 31 57.85  2.1527 2.3882  90.5 23.0  390  37
2020 05 29 08  11 39 33.859   +37 31 34.96  2.1532 2.3882  90.5 23.0  393  37
2020 05 29 09  11 39 35.556   +37 31 12.06  2.1536 2.3882  90.5 23.0  396  37
2020 05 29 10  11 39 37.256   +37 30 49.15  2.1541 2.3882  90.5 23.0  398  37
2020 05 29 11  11 39 38.958   +37 30 26.22  2.1545 2.3882  90.4 23.0  401  37
2020 05 29 12  11 39 40.662   +37 30 03.29  2.1550 2.3882  90.4 23.0  403  37
2020 05 29 13  11 39 42.368   +37 29 40.34  2.1555 2.3882  90.4 23.0  406  37
2020 05 29 14  11 39 44.077   +37 29 17.37  2.1559 2.3882  90.4 23.0  409  37
2020 05 29 15  11 39 45.787   +37 28 54.40  2.1564 2.3882  90.3 23.0  411  37
2020 05 29 16  11 39 47.501   +37 28 31.41  2.1569 2.3882  90.3 23.1  414  37
2020 05 29 17  11 39 49.216   +37 28 08.41  2.1573 2.3882  90.3 23.1  417  37
2020 05 29 18  11 39 50.934   +37 27 45.40  2.1578 2.3882  90.3 23.1  419  37
2020 05 29 19  11 39 52.653   +37 27 22.37  2.1582 2.3883  90.2 23.1  422  37
2020 05 29 20  11 39 54.376   +37 26 59.34  2.1587 2.3883  90.2 23.1  425  37